Content
SEND FEEDBACK

Daily
Averages
Monthly
Summary
Canada

MONTREAL, QUEBEC


Home > North America > Canada > Quebec
Elevation: 118 feet     Latitude: 45 28N     Longitude: 073 45W

WEATHER
 
SELECT A DAY
Number of Records: 198,548;   Date Range: 1/1/95 - 8/27/14
 
SHARE

PRINT THIS DATA

[ ← Previous Day ]
WEATHER ALMANAC - JULY 18, 2013
[ Next Day → ]
[ °C ]   °F
Weather ElementAverageHighLow
Temperature76.4 °F86 °F (3:00 pm)69.8 °F (2:00 am)
Dewpoint70.6 °F75.2 °F (5:27 pm)68 °F (5:00 am)
Humidity82.4 %100 % (2:00 am)62 % (3:00 pm)
Barometer29.96 in30.02 in (8:00 am)29.88 in (11:00 pm)
Wind Speed7.4 mph11.5 mph (6:00 pm)
Weather ElementAverage
Visibility14.8 mi
Wind DirectionSSW (202.3 °)

Weather ElementTotal
Precipitation---
Cooling Degree Days12.9 (Base 65)
Growing Degree Days27.9 (Base 50)
Averaged from 31 records on July 18, 2013
WEATHER CONDITIONS BREAKOUT
WIND DIRECTION BREAKOUT
WEATHER BY HOUR - JULY 18, 2013
[ °C ]   °F
Local TimeTemperatureDewpointHumidityBarometerVisibilityWind DirectionWind SpeedGust SpeedPrecipitationEventsConditions
1:00 AM71.6 °F69.8 °F94 %29.99 in15.0 miWest (260°)3.5 mphScattered Clouds
2:00 AM71.0 °F69.0 °F92 %29.99 in15.0 miNorth1.2 mphPartly Cloudy
2:00 AM69.8 °F69.8 °F100 %29.99 in15.0 miCalmScattered Clouds
3:00 AM69.8 °F69.8 °F100 %30.00 in15.0 miWSW (250°)5.8 mphMostly Cloudy
4:00 AM71.6 °F69.8 °F94 %30.01 in15.0 miSW (230°)4.6 mphScattered Clouds
5:00 AM69.8 °F68.0 °F94 %30.01 in15.0 miWSW (240°)4.6 mphMostly Cloudy
6:00 AM69.8 °F68.0 °F94 %30.01 in15.0 miCalmMostly Cloudy
7:00 AM73.4 °F69.8 °F88 %30.01 in15.0 miSW (220°)4.6 mphScattered Clouds
8:00 AM73.0 °F69.0 °F85 %30.02 in15.0 miSW (220°)6.9 mphMostly Cloudy
8:00 AM73.4 °F69.8 °F88 %30.02 in15.0 miSW (230°)6.9 mphMostly Cloudy
9:00 AM75.2 °F69.8 °F83 %30.02 in15.0 miSouth (190°)6.9 mphMostly Cloudy
10:00 AM77.0 °F69.8 °F78 %30.01 in15.0 miSouth (180°)6.9 mphScattered Clouds
11:00 AM78.8 °F71.6 °F78 %30.00 in15.0 miSSW (200°)8.1 mphMostly Cloudy
12:00 PM80.6 °F71.6 °F74 %29.99 in15.0 miSouth (180°)8.1 mphMostly Cloudy
1:00 PM82.4 °F71.6 °F70 %29.98 in15.0 miSSW (210°)9.2 mphOvercast
2:00 PM84.2 °F71.6 °F66 %29.96 in15.0 miSSW (200°)8.1 mphMostly Cloudy
3:00 PM86.0 °F71.6 °F62 %29.94 in15.0 miSSW (210°)10.4 mphMostly Cloudy
4:00 PM82.4 °F71.6 °F70 %29.92 in15.0 miSSW (200°)10.4 mphOvercast
4:09 PM82.4 °F71.6 °F70 %29.93 in15.0 miSW (220°)9.2 mphRainLight Rain Showers
4:17 PM82.4 °F71.6 °F70 %29.92 in10.0 miSW (220°)10.4 mphRain-ThunderstormLight Thunderstorms and Rain
5:00 PM77.0 °F73.4 °F89 %29.92 in15.0 miNNW (330°)10.4 mphRainLight Rain Showers
5:27 PM78.8 °F75.2 °F89 %29.91 in15.0 miWest (280°)4.6 mphOvercast
6:00 PM80.6 °F71.6 °F74 %29.91 in15.0 miWSW (240°)11.5 mphOvercast
7:00 PM78.8 °F73.4 °F83 %29.91 in15.0 miSW (230°)5.8 mphOvercast
8:00 PM77.0 °F69.0 °F71 %29.92 in15.0 miSSW (210°)10.4 mphPartly Cloudy
8:00 PM77.0 °F69.8 °F78 %29.91 in15.0 miSW (220°)10.4 mphOvercast
8:38 PM77.0 °F69.8 °F78 %29.90 in15.0 miSW (220°)10.4 mphRainLight Rain Showers
9:00 PM77.0 °F71.6 °F83 %29.90 in15.0 miSW (230°)10.4 mphRainLight Rain Showers
10:00 PM75.2 °F69.8 °F83 %29.91 in15.0 miSW (220°)10.4 mphRainLight Rain Showers
10:27 PM73.4 °F69.8 °F88 %29.89 in15.0 miSW (220°)10.4 mphOvercast
11:00 PM73.4 °F69.8 °F88 %29.88 in15.0 miSSW (210°)10.4 mphMostly Cloudy
Hourly data recorded from CYUL, located miles away from Montreal, Quebec







STORIES FROM OUR PARTNERS